Location: Asheville, NC
(35.6000°N, 82.5500°W)
Time: 14:26:37

XW-2D - Pass Details

Date: 11 January 2018
Orbit: 510 x 530 km, 97.5° (Epoch: 17 March)

Event Time Altitude Azimuth Distance (km) Brightness Sun altitude
Rises 05:49:11 0° 27° (NNE) 2,650 ? -22.1°
Reaches altitude 10° 05:51:39 10° 43° (NE) 1,753 ? -21.6°
Maximum altitude 05:54:40 23° 96° (E) 1,147 ? -21.0°
Drops below altitude 10° 05:57:39 10° 149° (SSE) 1,733 ? -20.4°
Sets 06:00:03 0° 164° (SSE) 2,611 ? -19.9°
